Location: Northam
(31.6525°S, 116.6655°E)
Time: 09:12:11
(UTC+08:00)

N. Korean satellite - Pass Details

Date: 16 May 2021
Orbit: 450 x 500 km, 97.2° (Epoch: 13 June)

Event Time Altitude Azimuth Distance (km) Brightness Sun altitude
Rises 05:17:10 0° 356° (N) 2,468 10.2 -20.8°
Reaches altitude 10° 05:19:16 10° 347° (NNW) 1,611 9.2 -20.3°
Enters shadow 05:19:58 15° 341° (NNW) 1,344 8.7 -20.2°
